Tiempo atmosférico en la estación meteorológica de La Orotava, Cañadas Teide, Santa Cruz de Tenerife (2150 m.)



Fecha
DESCASC
Temp. máxima en grados centígrados (hora)
DESCASC
Temp. mínima en grados centígrados (hora)
DESCASC
Temp. media en grados centígrados
DESCASC
Racha de viento máxima en m/sg (hora)
DESCASC
Velocidad máxima media en intervalos de 10 minutos(hora)
DESCASC
Precipitaciones diarias en mm
DESCASC
Precipitaciones de 00:00 a 06:00 en mm
DESCASC
Precipitaciones de 06:00 a 12:00 en mm
DESCASC
Precipitaciones de 12:00 a 18:00 en mm
DESCASC
Precipitaciones de 18:00 a 24:00 en mm
DESCASC
13-10-2019 18.3 (14:20) 4.4 (05:00) 11.3 10.28 (20:40) 6.11 (20:50) 0 0 0 0 0
12-10-2019 19.6 (14:20) 2.9 (07:40) 11.3 7.5 (14:50) 4.17 (16:40) 0 0 0 0 0
10-10-2019 19.5 (12:20) 4.5 (00:00) 12 9.72 (14:10) 5 (17:10) 0 0 0 0 0
09-10-2019 21.3 (16:10) 8.3 (00:00) 14.8 12.78 (12:10) 5 (12:00) 0 0 0 0 0
08-10-2019 22 (15:00) 12.8 (00:00) 17.4 12.5 (17:40) 6.11 (17:20) 0 0 0 0 0
07-10-2019 22.2 (14:30) 8.6 (00:00) 15.4 14.72 (16:20) 6.67 (12:00) 0 0 0 0 0
06-10-2019 23 (12:20) 11.2 (00:00) 17.1 9.72 (00:40) 6.67 (00:40) 0 0 0 0 0
05-10-2019 22 (16:00) 9.1 (04:20) 15.6 11.11 (16:50) 7.78 (18:50) 0 0 0 0 0
04-10-2019 22.9 (13:40) 14.7 (00:00) 18.8 17.5 (01:50) 11.39 (02:10) 0 0 0 0 0
03-10-2019 25.3 (14:10) 16.1 (00:00) 20.7 17.78 (19:50) 11.39 (21:00) 0 0 0 0 0
02-10-2019 26.6 (16:30) 14.3 (00:00) 20.5 10.28 (16:10) 5 (13:00) 0 0 0 0 0
01-10-2019 28.1 (14:40) 14.1 (00:00) 21.1 11.67 (15:20) 6.67 (14:00) 0 0 0 0 0
30-09-2019 26.2 (14:30) 13 (00:00) 19.6 11.39 (15:00) 5.28 (15:00) 0 0 0 0 0
29-09-2019 24.5 (14:30) 15.8 (00:00) 20.2 12.5 (14:10) 7.5 (14:50) 0 0 0 0 0
28-09-2019 22.6 (12:30) 15.6 (00:00) 19.1 15.28 (02:10) 8.33 (01:50) 0 0 0 0 0
27-09-2019 22.8 (14:10) 16.6 (00:00) 19.7 16.94 (10:20) 6.67 (10:00) 0 0 0 0 0
26-09-2019 22.7 (14:10) 11.3 (00:00) 17 15.83 (16:30) 7.22 (15:30) 0 0 0 0 0
25-09-2019 24.5 (15:30) 7.7 (00:00) 16.1 8.61 (14:10) 5.28 (10:40) 0 0 0 0 0
24-09-2019 23.8 (15:40) 6.2 (00:00) 15 7.78 (14:30) 5.56 (22:50) 0 0 0 0 0
23-09-2019 21.2 (15:30) 5.9 (00:00) 13.6 8.06 (15:30) 4.44 (13:30) 0 0 0 0 0
22-09-2019 21.8 (12:00) 8.9 (00:00) 15.3 10.83 (12:40) 5.28 (20:30) 0 0 0 0 0
21-09-2019 22.8 (14:40) 15 (00:00) 18.9 15 (15:40) 6.67 (12:50) 0 0 0 0 0
20-09-2019 23.3 (13:50) 10.2 (00:00) 16.7 13.89 (16:10) 5.83 (16:10) 0 0 0 0 0
19-09-2019 24 (14:30) 9.7 (00:00) 16.8 8.61 (14:10) 4.44 (15:30) 0 0 0 0 0
18-09-2019 24.4 (15:40) 12.8 (00:00) 18.6 15 (17:30) 8.33 (17:20) 0 0 0 0 0
17-09-2019 22.7 (16:40) 14.6 (00:00) 18.7 14.17 (15:50) 7.22 (16:30) 0 0 0 0 0
16-09-2019 22.1 (14:50) 11.8 (00:00) 17 13.33 (18:20) 4.72 (16:30) 19.8 3.2 2.4 5.2 9

Gráficas

Temp. máximas Temp. mínimas Temp. medias Precipitaciones Rachas de viento máximas Velocidades máximas media en intervalos de 10 minutos

Datos horarios

Fecha y hora oficial Temperatura (ºC) Velocidad del viento (km/h) Dirección del viento Racha (km/h) Dirección de racha Precipitación (mm) Presión (hPa) Tendencia (hPa) Humedad (%)
2019-10-15 23:00:00 12 5 Sudoeste 18 Sudoeste 0 -- -- 43
2019-10-15 22:00:00 12.5 9 Sur 22 Sudoeste 0 -- -- 40
2019-10-15 21:00:00 13.3 10 Sur 21 Sur 0 -- -- 37
2019-10-15 20:00:00 13.5 7 Sudoeste 28 Sudoeste 0 -- -- 38
2019-10-15 19:00:00 15.9 12 Sudoeste 32 Oeste 0 -- -- 38
2019-10-15 18:00:00 17.2 12 Sudoeste 32 Oeste 0 -- -- 35
2019-10-15 17:00:00 18.3 13 Oeste 33 Oeste 0 -- -- 34
2019-10-15 16:00:00 18.3 15 Sudoeste 39 Sur 0 -- -- 32
2019-10-15 15:00:00 17.9 10 Sudoeste 36 Oeste 0 -- -- 29
2019-10-15 14:00:00 17.5 12 Sudoeste 36 Sur 0 -- -- 31
2019-10-15 13:00:00 17 14 Oeste 36 Sudoeste 0 -- -- 24
2019-10-15 12:00:00 16.7 13 Oeste 35 Oeste 0 -- -- 17
2019-10-15 11:00:00 16.2 11 Sudoeste 28 Sur 0 -- -- 22
2019-10-15 10:00:00 14.5 15 Sudoeste 21 Sudoeste 0 -- -- 22
2019-10-15 09:00:00 10.7 10 Sur 15 Sur 0 -- -- 26
2019-10-15 08:00:00 10 10 Sur 18 Sudoeste 0 -- -- 26
2019-10-15 07:00:00 10 11 Sur 16 Sudoeste 0 -- -- 25
2019-10-15 06:00:00 10.4 10 Sudoeste 22 Sudoeste 0 -- -- 27
2019-10-15 05:00:00 9.5 13 Sudoeste 21 Sudoeste 0 -- -- 28
2019-10-15 04:00:00 9.7 11 Sudoeste 16 Sudoeste 0 -- -- 35
2019-10-15 03:00:00 9.9 9 Sudoeste 14 Sudoeste 0 -- -- 42
2019-10-15 02:00:00 9.5 9 Sudoeste 14 Sudoeste 0 -- -- 50
2019-10-15 01:00:00 9.3 5 Sudoeste 13 Sur 0 -- -- 63
2019-10-15 00:00:00 9.7 5 Sudoeste 9 Sudoeste 0 -- -- 68
2019-10-14 23:00:00 10.4 6 Sur 13 Sur 0 -- -- 63
2019-10-14 22:00:00 11 8 Sudoeste 16 Sudoeste 0 -- -- 61
2019-10-14 21:00:00 11.9 11 Sudoeste 21 Sudoeste 0 -- -- 62
2019-10-14 20:00:00 12.2 15 Sudoeste 29 Sudoeste 0 -- -- 65
2019-10-14 19:00:00 13.9 11 Sudoeste 36 Sudoeste 0 -- -- 59
2019-10-14 18:00:00 16 11 Sudoeste 32 Oeste 0 -- -- 53
2019-10-14 17:00:00 15.9 15 Sudoeste 33 Oeste 0 -- -- 52
2019-10-14 16:00:00 16.2 20 Oeste 32 Oeste 0 -- -- 51
2019-10-14 15:00:00 17.1 13 Oeste 32 Oeste 0 -- -- 46
2019-10-14 14:00:00 18.2 16 Sudoeste 32 Oeste 0 -- -- 49
2019-10-14 13:00:00 17.5 16 Sur 32 Sudoeste 0 -- -- 49
2019-10-14 12:00:00 16.7 15 Sudoeste 26 Sur 0 -- -- 51
2019-10-14 11:00:00 14.1 9 Oeste 14 Sudoeste 0 -- -- 58
2019-10-14 10:00:00 13.2 6 Sudoeste 9 Sudoeste 0 -- -- 61
2019-10-14 09:00:00 8.5 0 Calma 7 Norte 0 -- -- 77
2019-10-14 08:00:00 4.8 2 Norte 8 Norte 0 -- -- 81
2019-10-14 07:00:00 5.1 8 Norte 12 Norte 0 -- -- 81
2019-10-14 06:00:00 6.2 3 Norte 9 Norte 0 -- -- 71
2019-10-14 05:00:00 5.8 3 Norte 12 Norte 0 -- -- 68
2019-10-14 04:00:00 6.3 5 Norte 12 Norte 0 -- -- 69
2019-10-14 03:00:00 5.4 10 Norte 12 Norte 0 -- -- 69
2019-10-14 02:00:00 7.4 2 Nordeste 12 Norte 0 -- -- 64
2019-10-14 01:00:00 6.6 3 Nordeste 14 Norte 0 -- -- 59
2019-10-14 00:00:00 8.3 0 Calma 22 Este 0 -- -- 52
2019-10-13 23:00:00 9.8 8 Sur 23 Sudoeste 0 -- -- 59
2019-10-13 22:00:00 10.7 15 Sudoeste 28 Sudoeste 0 -- -- 43
2019-10-13 21:00:00 11.6 19 Sur 37 Sudoeste 0 -- -- 25
2019-10-13 20:00:00 11.8 8 Sudoeste 30 Sudoeste 0 -- -- 20
2019-10-13 19:00:00 14.3 10 Sudoeste 28 Oeste 0 -- -- 30
2019-10-13 18:00:00 15.4 14 Oeste 32 Oeste 0 -- -- 27
2019-10-13 17:00:00 15.5 15 Oeste 35 Oeste 0 -- -- 27
2019-10-13 16:00:00 16 19 Oeste 33 Oeste 0 -- -- 24
2019-10-13 15:00:00 16.4 19 Oeste 36 Sur 0 -- -- 13
2019-10-13 14:00:00 16.7 17 Oeste 32 Oeste 0 -- -- 16
2019-10-13 13:00:00 16.7 14 Sudoeste 30 Oeste 0 -- -- 14
2019-10-13 12:00:00 16.1 14 Sudoeste 30 Oeste 0 -- -- 16
2019-10-13 11:00:00 15.7 10 Sudoeste 21 Sudoeste 0 -- -- 16
2019-10-13 10:00:00 14.9 5 Sur 11 Sur 0 -- -- 12
2019-10-13 09:00:00 11 6 Sudoeste 10 Sur 0 -- -- 14
2019-10-13 08:00:00 10.1 5 Sudoeste 9 Sur 0 -- -- 13
2019-10-13 07:00:00 8.6 5 Sudoeste 11 Sur 0 -- -- 15
2019-10-13 06:00:00 5.9 4 Oeste 13 Norte 0 -- -- 17
2019-10-13 05:00:00 4.4 14 Norte 18 Norte 0 -- -- 21
2019-10-13 04:00:00 11.7 8 Sur 13 Sur 0 -- -- 11
2019-10-13 03:00:00 10.3 8 Sur 13 Sur 0 -- -- 12
2019-10-13 02:00:00 9.4 5 Sudoeste 9 Sur 0 -- -- 13
2019-10-13 01:00:00 11.2 7 Sur 9 Sur 0 -- -- 12
2019-10-13 00:00:00 11.3 5 Sudoeste 8 Sur 0 -- -- 14
2019-10-12 23:00:00 9.1 3 Sudoeste 5 Noroeste 0 -- -- 25
2019-10-12 22:00:00 8.8 0 Calma 10 Sudoeste 0 -- -- 31
2019-10-12 21:00:00 11.6 7 Sudoeste 17 Sur 0 -- -- 29
2019-10-12 20:00:00 13.7 6 Sur 19 Sudoeste 0 -- -- 37
2019-10-12 19:00:00 17.5 9 Oeste 19 Oeste 0 -- -- 29
2019-10-12 18:00:00 18.9 11 Oeste 22 Oeste 0 -- -- 25
2019-10-12 17:00:00 19.5 12 Oeste 24 Oeste 0 -- -- 24
2019-10-12 16:00:00 19.2 14 Oeste 27 Noroeste 0 -- -- 19
2019-10-12 15:00:00 18.9 13 Oeste 27 Oeste 0 -- -- 14
2019-10-12 14:00:00 19.1 12 Oeste 26 Sur 0 -- -- 17
2019-10-12 13:00:00 18.2 13 Oeste 21 Oeste 0 -- -- 18
2019-10-12 12:00:00 17.5 9 Oeste 21 Oeste 0 -- -- 16
2019-10-12 11:00:00 16.5 5 Sudoeste 10 Sudoeste 0 -- -- 16
2019-10-12 10:00:00 14.1 4 Sudeste 8 Este 0 -- -- 19
2019-10-12 09:00:00 8.6 0 Calma 11 Nordeste 0 -- -- 29
2019-10-12 08:00:00 4.1 6 Norte 14 Norte 0 -- -- 35
2019-10-12 07:00:00 4 6 Norte 10 Norte 0 -- -- 36
2019-10-12 06:00:00 4.4 8 Nordeste 15 Norte 0 -- -- 32
2019-10-12 05:00:00 3.7 10 Norte 12 Norte 0 -- -- 34
2019-10-12 04:00:00 4.5 8 Norte 12 Norte 0 -- -- 39
2019-10-12 03:00:00 4.5 7 Norte 13 Este 0 -- -- 38
2019-10-12 02:00:00 4.3 8 Nordeste 13 Este 0 -- -- 38
2019-10-12 01:00:00 9.4 11 Este 18 Este 0 -- -- 31
2019-10-12 00:00:00 7.9 7 Este 20 Este 0 -- -- 32
2019-10-11 23:00:00 9.2 14 Nordeste 17 Este 0 -- -- 23
2019-10-11 22:00:00 8.6 3 Norte 9 Norte 0 -- -- 23
2019-10-11 21:00:00 9.7 3 Nordeste 11 Sudoeste 0 -- -- 23
2019-10-11 20:00:00 14.5 4 Oeste 15 Sudoeste 0 -- -- 23
2019-10-11 19:00:00 17.8 9 Sudoeste 27 Sur 0 -- -- 20
2019-10-11 18:00:00 18.8 16 Sudoeste 30 Sudoeste 0 -- -- 18
2019-10-11 17:00:00 19.2 23 Sudoeste 38 Sudoeste 0 -- -- 18
2019-10-11 16:00:00 19.7 17 Sur 38 Sudoeste 0 -- -- 17
2019-10-11 15:00:00 19.8 18 Sur 48 Sur 0 -- -- 17
2019-10-11 14:00:00 19.9 24 Sudoeste 46 Sudoeste 0 -- -- 21
2019-10-11 13:00:00 19.7 24 Sudoeste 42 Sudoeste 0 -- -- 18
2019-10-11 12:00:00 18.2 14 Sudoeste 33 Sur 0 -- -- 15
2019-10-11 11:00:00 17.5 8 Sur 15 Sur 0 -- -- 10
2019-10-11 10:00:00 16.3 3 Sur 9 Sur 0 -- -- 9
2019-10-11 09:00:00 9.4 4 Sur 8 Sudoeste 0 -- -- 15
2019-10-11 08:00:00 4.2 3 Noroeste 7 Norte 0 -- -- 19
2019-10-11 07:00:00 5 3 Norte 8 Norte 0 -- -- 20
2019-10-11 06:00:00 6.8 2 Noroeste 10 Norte 0 -- -- 19
2019-10-11 05:00:00 4.4 3 Sudoeste 8 Norte 0 -- -- 23
2019-10-11 04:00:00 5.6 0 Calma 10 Sur 0 -- -- 23
2019-10-11 03:00:00 9.9 7 Sur 10 Sur 0 -- -- 19
2019-10-11 02:00:00 10 5 Sur 8 Sur 0 -- -- 19
2019-10-11 01:00:00 8.1 0 Calma 4 Oeste 0 -- -- 22
2019-10-11 00:00:00 9 3 Sudoeste 5 Sudoeste 0 -- -- 22
2019-10-10 23:00:00 11.8 5 Sudoeste 9 Sudoeste 0 -- -- 18
2019-10-10 22:00:00 11.4 5 Sur 9 Sudoeste 0 -- -- 21
2019-10-10 21:00:00 12 7 Sur 15 Sur 0 -- -- 21
2019-10-10 20:00:00 13.4 4 Sur 19 Oeste 0 -- -- 19
2019-10-10 19:00:00 17.1 11 Sudoeste 30 Sur 0 -- -- 18
2019-10-10 18:00:00 17.8 11 Sudoeste 35 Sudoeste 0 -- -- 17
2019-10-10 17:00:00 17.6 14 Sudoeste 28 Sudoeste 0 -- -- 20
2019-10-10 16:00:00 18.3 14 Oeste 31 Oeste 0 -- -- 19
2019-10-10 15:00:00 18.2 14 Sudoeste 35 Oeste 0 -- -- 20
2019-10-10 14:00:00 18 14 Oeste 29 Oeste 0 -- -- 25
2019-10-10 13:00:00 17.7 13 Oeste 24 Noroeste 0 -- -- 25
2019-10-10 12:00:00 18.5 8 Sur 17 Sur 0 -- -- 22
2019-10-10 11:00:00 17 6 Sudoeste 11 Sudoeste 0 -- -- 20
2019-10-10 10:00:00 14.7 4 Sudeste 12 Este 0 -- -- 23
2019-10-10 09:00:00 10.1 6 Nordeste 13 Nordeste 0 -- -- 32
2019-10-10 08:00:00 5.9 9 Nordeste 13 Norte 0 -- -- 38
2019-10-10 07:00:00 4.8 6 Nordeste 10 Norte 0 -- -- 43
2019-10-10 06:00:00 6.5 0 Calma 9 Norte 0 -- -- 39
2019-10-10 05:00:00 5.3 5 Nordeste 9 Norte 0 -- -- 41
2019-10-10 04:00:00 7.9 0 Calma 9 Norte 0 -- -- 37
2019-10-10 03:00:00 6.4 5 Norte 9 Nordeste 0 -- -- 39
2019-10-10 02:00:00 8.1 6 Norte 9 Norte 0 -- -- 37
2019-10-10 01:00:00 7.6 7 Norte 10 Norte 0 -- -- 38
2019-10-10 00:00:00 8.3 8 Norte 9 Norte 0 -- -- 40
2019-10-09 23:00:00 11.1 0 Calma 10 Nordeste 0 -- -- 37
2019-10-09 22:00:00 9.6 6 Nordeste 10 Norte 0 -- -- 37
2019-10-09 21:00:00 12.8 3 Sudeste 9 Sur 0 -- -- 47
2019-10-09 20:00:00 14.5 5 Oeste 19 Sudoeste 0 -- -- 44
2019-10-09 19:00:00 17.9 10 Oeste 22 Oeste 0 -- -- 38
2019-10-09 18:00:00 19.1 10 Oeste 24 Oeste 0 -- -- 32
2019-10-09 17:00:00 20.4 11 Sudoeste 31 Sudoeste 0 -- -- 22
2019-10-09 16:00:00 20.9 13 Sudoeste 35 Oeste 0 -- -- 21
2019-10-09 15:00:00 19.9 15 Oeste 40 Sudoeste 0 -- -- 18
2019-10-09 14:00:00 20.8 13 Sudoeste 39 Sudoeste 0 -- -- 18
2019-10-09 13:00:00 20.1 16 Sudoeste 46 Sudoeste 0 -- -- 19
2019-10-09 12:00:00 20.1 18 Sudoeste 35 Sudoeste 0 -- -- 24
2019-10-09 11:00:00 19.2 11 Oeste 25 Oeste 0 -- -- 23
2019-10-09 10:00:00 18 7 Sur 15 Sudoeste 0 -- -- 27
2019-10-09 09:00:00 15.1 6 Sudoeste 13 Sur 0 -- -- 32
2019-10-09 08:00:00 13.1 9 Sudoeste 14 Sur 0 -- -- 30
2019-10-09 07:00:00 13.4 8 Sur 13 Sudoeste 0 -- -- 25
2019-10-09 06:00:00 13.4 8 Sur 11 Sudoeste 0 -- -- 24
2019-10-09 05:00:00 13.7 7 Sur 9 Sur 0 -- -- 25
2019-10-09 04:00:00 13.9 6 Sur 9 Sudoeste 0 -- -- 29
2019-10-09 03:00:00 14.2 6 Sur 14 Sudoeste 0 -- -- 30
2019-10-09 02:00:00 15.4 8 Sur 13 Sudoeste 0 -- -- 29
2019-10-09 01:00:00 14.7 4 Sudoeste 14 Sudoeste 0 -- -- 31
2019-10-09 00:00:00 15.7 9 Sudoeste 14 Sudoeste 0 -- -- 31
2019-10-08 23:00:00 16.3 10 Sudoeste 25 Oeste 0 -- -- 31
2019-10-08 22:00:00 16.4 9 Sudoeste 20 Oeste 0 -- -- 31
2019-10-08 21:00:00 17 9 Oeste 22 Oeste 0 -- -- 31
2019-10-08 20:00:00 17.8 13 Oeste 31 Oeste 0 -- -- 28
2019-10-08 19:00:00 19.6 15 Oeste 35 Noroeste 0 -- -- 28
2019-10-08 18:00:00 20.7 16 Oeste 45 Sudoeste 0 -- -- 27
2019-10-08 17:00:00 20.9 19 Oeste 39 Oeste 0 -- -- 27
2019-10-08 16:00:00 20.9 19 Oeste 42 Oeste 0 -- -- 26
2019-10-08 15:00:00 22 18 Oeste 40 Oeste 0 -- -- 25
2019-10-08 14:00:00 21.5 17 Oeste 40 Oeste 0 -- -- 25
2019-10-08 13:00:00 20.7 16 Oeste 34 Noroeste 0 -- -- 25
2019-10-08 12:00:00 20 18 Oeste 36 Oeste 0 -- -- 26
2019-10-08 11:00:00 19.6 16 Oeste 28 Oeste 0 -- -- 27
2019-10-08 10:00:00 19 5 Sur 18 Sudoeste 0 -- -- 26
2019-10-08 09:00:00 16.3 3 Sur 12 Oeste 0 -- -- 30
2019-10-08 08:00:00 12.8 2 Sudeste 7 Sur 0 -- -- 34
2019-10-08 07:00:00 14.1 3 Oeste 10 Sudoeste 0 -- -- 31
2019-10-08 06:00:00 15.4 6 Sudoeste 22 Oeste 0 -- -- 29
2019-10-08 05:00:00 15.7 9 Sudoeste 21 Sudoeste 0 -- -- 26
2019-10-08 04:00:00 15.9 7 Sudoeste 19 Oeste 0 -- -- 26
2019-10-08 03:00:00 15.9 7 Oeste 20 Oeste 0 -- -- 25
2019-10-08 02:00:00 15.7 5 Oeste 18 Noroeste 0 -- -- 23
2019-10-08 01:00:00 16.1 6 Sudoeste 15 Sudoeste 0 -- -- 22
2019-10-08 00:00:00 16.4 5 Sudoeste 14 Sur 0 -- -- 21
2019-10-07 23:00:00 16.6 6 Sudoeste 19 Sudoeste 0 -- -- 20
2019-10-07 22:00:00 16.7 5 Sudoeste 21 Oeste 0 -- -- 20
2019-10-07 21:00:00 17.4 7 Sudoeste 19 Sudoeste 0 -- -- 18
2019-10-07 20:00:00 18 8 Sudoeste 32 Oeste 0 -- -- 19
2019-10-07 19:00:00 20.1 15 Sudoeste 46 Sudoeste 0 -- -- 17
2019-10-07 18:00:00 21.1 22 Sudoeste 45 Sudoeste 0 -- -- 17
2019-10-07 17:00:00 21.2 19 Sudoeste 53 Sur 0 -- -- 18
2019-10-07 16:00:00 21.7 16 Sudoeste 51 Oeste 0 -- -- 18
2019-10-07 15:00:00 21.9 22 Oeste 49 Sudoeste 0 -- -- 18
2019-10-07 14:00:00 21.9 18 Sudoeste 53 Sudoeste 0 -- -- 16
2019-10-07 13:00:00 21.7 21 Sudoeste 48 Oeste 0 -- -- 19
2019-10-07 12:00:00 20.5 24 Oeste 46 Oeste 0 -- -- 21
2019-10-07 11:00:00 20.3 21 Sudoeste 48 Sudoeste 0 -- -- 21
2019-10-07 10:00:00 19.2 18 Sudoeste 41 Sudoeste 0 -- -- 18
2019-10-07 09:00:00 17.6 14 Sudoeste 29 Sudoeste 0 -- -- 19
2019-10-07 08:00:00 15.7 11 Sudoeste 23 Sudoeste 0 -- -- 17
2019-10-07 07:00:00 14.2 4 Sudoeste 10 Oeste 0 -- -- 15
2019-10-07 06:00:00 12.9 3 Sudoeste 5 Sudoeste 0 -- -- 16
2019-10-07 05:00:00 11.6 5 Norte 8 Norte 0 -- -- 18
2019-10-07 04:00:00 11.5 5 Norte 12 Norte 0 -- -- 24
2019-10-07 03:00:00 9.7 3 Nordeste 8 Nordeste 0 -- -- 33
2019-10-07 02:00:00 9 8 Nordeste 12 Norte 0 -- -- 34
2019-10-07 01:00:00 10.2 6 Nordeste 12 Nordeste 0 -- -- 34
2019-10-07 00:00:00 11.5 3 Nordeste 10 Norte 0 -- -- 32
2019-10-06 23:00:00 11.2 5 Norte 8 Norte 0 -- -- 33
2019-10-06 22:00:00 12.1 7 Norte 9 Norte 0 -- -- 32
2019-10-06 21:00:00 13.7 5 Norte 10 Norte 0 -- -- 32
2019-10-06 20:00:00 16.6 7 Sudeste 15 Sudoeste 0 -- -- 34
2019-10-06 19:00:00 19.8 11 Sur 21 Sudoeste 0 -- -- 31
2019-10-06 18:00:00 20.6 16 Sur 24 Oeste 0 -- -- 30
2019-10-06 17:00:00 22.6 15 Sudoeste 29 Sudoeste 0 -- -- 30
2019-10-06 16:00:00 22.2 13 Sudoeste 29 Sudoeste 0 -- -- 22
2019-10-06 15:00:00 22 19 Sudoeste 35 Sur 0 -- -- 23
2019-10-06 14:00:00 22.4 19 Sur 34 Sudoeste 0 -- -- 29
2019-10-06 13:00:00 22 10 Sudeste 21 Este 0 -- -- 20
2019-10-06 12:00:00 22.2 12 Este 20 Este 0 -- -- 15
2019-10-06 11:00:00 21.4 9 Este 21 Este 0 -- -- 17
2019-10-06 10:00:00 18.3 15 Nordeste 19 Nordeste 0 -- -- 19
2019-10-06 09:00:00 14.6 12 Nordeste 19 Nordeste 0 -- -- 19
2019-10-06 08:00:00 11.6 15 Nordeste 21 Este 0 -- -- 22
2019-10-06 07:00:00 11.4 14 Este 20 Nordeste 0 -- -- 24
2019-10-06 06:00:00 12.4 17 Este 22 Este 0 -- -- 23
2019-10-06 05:00:00 12.5 15 Este 21 Este 0 -- -- 24
2019-10-06 04:00:00 12.6 17 Este 27 Este 0 -- -- 26
2019-10-06 03:00:00 13.3 23 Este 33 Este 0 -- -- 27
2019-10-06 02:00:00 13.4 23 Este 32 Este 0 -- -- 28
2019-10-06 01:00:00 13.7 24 Este 35 Este 0 -- -- 28
2019-10-06 00:00:00 13.9 23 Este 36 Este 0 -- -- 27
2019-10-05 23:00:00 14 22 Este 36 Este 0 -- -- 25
2019-10-05 22:00:00 14.4 23 Este 33 Este 0 -- -- 23
2019-10-05 21:00:00 14.2 20 Este 33 Este 0 -- -- 26
2019-10-05 20:00:00 15.3 20 Este 36 Nordeste 0 -- -- 26
2019-10-05 19:00:00 18.2 26 Este 40 Este 0 -- -- 23
2019-10-05 18:00:00 19.2 23 Sudeste 36 Sudeste 0 -- -- 25
2019-10-05 17:00:00 20.5 22 Este 40 Este 0 -- -- 26
2019-10-05 16:00:00 22 15 Nordeste 37 Nordeste 0 -- -- 22
2019-10-05 15:00:00 21.7 17 Nordeste 35 Nordeste 0 -- -- 27
2019-10-05 14:00:00 21.1 23 Nordeste 36 Nordeste 0 -- -- 24
2019-10-05 13:00:00 21.2 20 Nordeste 38 Nordeste 0 -- -- 23
2019-10-05 12:00:00 20.9 22 Nordeste 38 Este 0 -- -- 22
2019-10-05 11:00:00 19.4 27 Este 39 Este 0 -- -- 23
2019-10-05 10:00:00 17.9 22 Este 37 Este 0 -- -- 27
2019-10-05 09:00:00 15.1 20 Este 35 Este 0 -- -- 33
2019-10-05 08:00:00 12.9 15 Nordeste 30 Este 0 -- -- 32
2019-10-05 07:00:00 11.4 10 Norte 35 Nordeste 0 -- -- 35
2019-10-05 06:00:00 14.3 21 Nordeste 36 Nordeste 0 -- -- 33
2019-10-05 05:00:00 10.1 9 Norte 19 Nordeste 0 -- -- 39
2019-10-05 04:00:00 11.6 8 Noroeste 29 Nordeste 0 -- -- 35
2019-10-05 03:00:00 12.1 12 Nordeste 38 Nordeste 0 -- -- 37
2019-10-05 02:00:00 14.7 22 Nordeste 40 Nordeste 0 -- -- 33
2019-10-05 01:00:00 15.8 25 Nordeste 39 Nordeste 0 -- -- 31
2019-10-05 00:00:00 14.7 8 Norte 46 Nordeste 0 -- -- 30
2019-10-04 23:00:00 16.1 24 Nordeste 42 Nordeste 0 -- -- 30
2019-10-04 22:00:00 16.3 30 Nordeste 46 Nordeste 0 -- -- 28
2019-10-04 21:00:00 16.7 32 Nordeste 48 Nordeste 0 -- -- 28
2019-10-04 20:00:00 17 30 Nordeste 49 Nordeste 0 -- -- 26
2019-10-04 19:00:00 19.1 26 Nordeste 47 Nordeste 0 -- -- 23
2019-10-04 18:00:00 20.6 31 Nordeste 53 Norte 0 -- -- 22
2019-10-04 17:00:00 21.8 36 Nordeste 60 Nordeste 0 -- -- 22
2019-10-04 16:00:00 21.8 37 Nordeste 58 Norte 0 -- -- 21
2019-10-04 15:00:00 22.5 36 Nordeste 59 Nordeste 0 -- -- 21
2019-10-04 14:00:00 22.6 36 Norte 59 Nordeste 0 -- -- 21
2019-10-04 13:00:00 22.7 38 Nordeste 60 Nordeste 0 -- -- 21
2019-10-04 12:00:00 21.9 38 Nordeste 58 Nordeste 0 -- -- 21
2019-10-04 11:00:00 20.8 38 Nordeste 62 Nordeste 0 -- -- 22
2019-10-04 10:00:00 19.8 38 Nordeste 58 Norte 0 -- -- 23
2019-10-04 09:00:00 17.6 35 Nordeste 55 Nordeste 0 -- -- 25
2019-10-04 08:00:00 16.9 32 Nordeste 57 Norte 0 -- -- 25
2019-10-04 07:00:00 17.2 39 Nordeste 59 Nordeste 0 -- -- 25
2019-10-04 06:00:00 17.5 37 Nordeste 60 Norte 0 -- -- 24
2019-10-04 05:00:00 17.5 36 Nordeste 58 Nordeste 0 -- -- 23
2019-10-04 04:00:00 17.7 36 Nordeste 62 Nordeste 0 -- -- 23
2019-10-04 03:00:00 17.3 36 Nordeste 58 Nordeste 0 -- -- 24
2019-10-04 02:00:00 17.7 37 Nordeste 63 Nordeste 0 -- -- 24
2019-10-04 01:00:00 17.9 37 Nordeste 56 Nordeste 0 -- -- 23
2019-10-04 00:00:00 18 37 Nordeste 64 Nordeste 0 -- -- 23
2019-10-03 23:00:00 17.6 37 Nordeste 62 Nordeste 0 -- -- 23
2019-10-03 22:00:00 18.2 35 Nordeste 59 Nordeste 0 -- -- 22
2019-10-03 21:00:00 18.7 41 Nordeste 61 Norte 0 -- -- 21
2019-10-03 20:00:00 19.6 41 Nordeste 64 Nordeste 0 -- -- 17
2019-10-03 19:00:00 20.1 36 Nordeste 55 Nordeste 0 -- -- 18
2019-10-03 18:00:00 21.8 40 Nordeste 61 Nordeste 0 -- -- 17
2019-10-03 17:00:00 23.4 30 Nordeste 55 Norte 0 -- -- 16
2019-10-03 16:00:00 24.5 29 Nordeste 49 Nordeste 0 -- -- 17
2019-10-03 15:00:00 24.5 28 Nordeste 46 Nordeste 0 -- -- 16
2019-10-03 14:00:00 24.4 27 Nordeste 44 Norte 0 -- -- 16
2019-10-03 13:00:00 24.9 24 Nordeste 44 Nordeste 0 -- -- 15
2019-10-03 12:00:00 23.5 29 Nordeste 51 Nordeste 0 -- -- 17
2019-10-03 11:00:00 23.1 27 Nordeste 47 Nordeste 0 -- -- 16
2019-10-03 10:00:00 21.7 29 Nordeste 41 Nordeste 0 -- -- 17
2019-10-03 09:00:00 19.6 25 Nordeste 37 Nordeste 0 -- -- 21
2019-10-03 08:00:00 17.5 21 Nordeste 36 Norte 0 -- -- 22
2019-10-03 07:00:00 17.6 20 Nordeste 30 Nordeste 0 -- -- 23
2019-10-03 06:00:00 17 15 Nordeste 22 Norte 0 -- -- 26
2019-10-03 05:00:00 16.6 9 Norte 16 Nordeste 0 -- -- 25
2019-10-03 04:00:00 16.4 7 Nordeste 12 Norte 0 -- -- 25
2019-10-03 03:00:00 16.3 6 Este 14 Este 0 -- -- 24
2019-10-03 02:00:00 16.3 9 Este 22 Este 0 -- -- 22
2019-10-03 01:00:00 17 14 Este 20 Este 0 -- -- 21
2019-10-03 00:00:00 17.5 12 Este 18 Nordeste 0 -- -- 21
2019-10-02 23:00:00 17.6 13 Nordeste 18 Nordeste 0 -- -- 22
2019-10-02 22:00:00 18 9 Nordeste 17 Nordeste 0 -- -- 22
2019-10-02 21:00:00 17.5 6 Nordeste 14 Nordeste 0 -- -- 24
2019-10-02 20:00:00 21.2 5 Sudoeste 15 Sudoeste 0 -- -- 21
2019-10-02 19:00:00 23.2 10 Sur 25 Sudoeste 0 -- -- 20
2019-10-02 18:00:00 25.3 13 Sudoeste 31 Sudoeste 0 -- -- 17
2019-10-02 17:00:00 25.7 12 Oeste 37 Sudoeste 0 -- -- 18
2019-10-02 16:00:00 25.1 11 Oeste 29 Sudoeste 0 -- -- 19
2019-10-02 15:00:00 25.6 18 Sudoeste 30 Sudoeste 0 -- -- 17
2019-10-02 14:00:00 25 11 Oeste 27 Oeste 0 -- -- 18
2019-10-02 13:00:00 25.6 18 Sudoeste 34 Oeste 0 -- -- 17
2019-10-02 12:00:00 26 6 Sudoeste 17 Sudeste 0 -- -- 16
2019-10-02 11:00:00 25.3 10 Sudeste 17 Este 0 -- -- 17
2019-10-02 10:00:00 23.3 9 Este 13 Este 0 -- -- 17
2019-10-02 09:00:00 18.8 9 Este 13 Nordeste 0 -- -- 22
2019-10-02 08:00:00 16.1 13 Nordeste 14 Nordeste 0 -- -- 25
2019-10-02 07:00:00 14.3 10 Nordeste 12 Nordeste 0 -- -- 28
2019-10-02 06:00:00 15.5 7 Nordeste 10 Nordeste 0 -- -- 26
2019-10-02 05:00:00 15.5 8 Nordeste 12 Nordeste 0 -- -- 25
2019-10-02 04:00:00 15.6 9 Nordeste 13 Nordeste 0 -- -- 25
2019-10-02 03:00:00 16.1 7 Nordeste 12 Nordeste 0 -- -- 25
2019-10-02 02:00:00 16.9 8 Nordeste 10 Nordeste 0 -- -- 24
2019-10-02 01:00:00 15.5 6 Nordeste 10 Este 0 -- -- 26
2019-10-02 00:00:00 15.8 9 Nordeste 11 Este 0 -- -- 25
2019-10-01 23:00:00 17 8 Nordeste 10 Norte 0 -- -- 24
2019-10-01 22:00:00 18.2 8 Este 11 Nordeste 0 -- -- 22
2019-10-01 21:00:00 20.2 10 Nordeste 13 Sudeste 0 -- -- 20
2019-10-01 20:00:00 21.6 10 Este 20 Este 0 -- -- 19
2019-10-01 19:00:00 25 10 Este 20 Este 0 -- -- 18
2019-10-01 18:00:00 26.3 10 Sudoeste 36 Oeste 0 -- -- 16
2019-10-01 17:00:00 27.2 21 Sudoeste 37 Sudoeste 0 -- -- 15
2019-10-01 16:00:00 26.9 16 Oeste 42 Oeste 0 -- -- 16
2019-10-01 15:00:00 25.9 14 Sur 41 Sudoeste 0 -- -- 17
2019-10-01 14:00:00 27.1 24 Sudoeste 38 Sudoeste 0 -- -- 15
2019-10-01 13:00:00 26.4 13 Sur 34 Sudoeste 0 -- -- 15
2019-10-01 12:00:00 26.1 14 Sudoeste 28 Sudoeste 0 -- -- 15
2019-10-01 11:00:00 24.9 10 Sudoeste 18 Sudoeste 0 -- -- 16
2019-10-01 10:00:00 24.1 5 Este 8 Nordeste 0 -- -- 18
2019-10-01 09:00:00 17.5 5 Nordeste 9 Nordeste 0 -- -- 25
2019-10-01 08:00:00 14.4 8 Nordeste 9 Nordeste 0 -- -- 27
2019-10-01 07:00:00 15 7 Nordeste 9 Nordeste 0 -- -- 23
2019-10-01 06:00:00 15 6 Norte 8 Norte 0 -- -- 23
2019-10-01 05:00:00 15.6 5 Este 13 Norte 0 -- -- 22
2019-10-01 04:00:00 14.7 10 Norte 13 Norte 0 -- -- 23
2019-10-01 03:00:00 15.5 5 Norte 15 Norte 0 -- -- 22
2019-10-01 02:00:00 17.8 10 Noroeste 18 Oeste 0 -- -- 19
2019-10-01 01:00:00 15.4 6 Norte 9 Norte 0 -- -- 23
2019-10-01 00:00:00 16.8 5 Nordeste 13 Norte 0 -- -- 22
2019-09-30 23:00:00 15.5 6 Norte 13 Este 0 -- -- 26
2019-09-30 22:00:00 18.7 3 Este 5 Este 0 -- -- 21
2019-09-30 21:00:00 20.4 3 Norte 9 Noroeste 0 -- -- 19
2019-09-30 20:00:00 21.6 4 Oeste 23 Oeste 0 -- -- 20
2019-09-30 19:00:00 23.9 10 Sudoeste 27 Oeste 0 -- -- 20
2019-09-30 18:00:00 25.7 7 Sudoeste 36 Sudoeste 0 -- -- 18
2019-09-30 17:00:00 25 14 Oeste 36 Sudoeste 0 -- -- 17
2019-09-30 16:00:00 25 15 Oeste 37 Sudoeste 0 -- -- 18
2019-09-30 15:00:00 25.6 19 Sudoeste 41 Sudoeste 0 -- -- 17
2019-09-30 14:00:00 25.7 19 Sur 36 Sudoeste 0 -- -- 17
2019-09-30 13:00:00 25.4 14 Sudeste 28 Sur 0 -- -- 16
2019-09-30 12:00:00 24.8 11 Sur 25 Sudeste 0 -- -- 17
2019-09-30 11:00:00 24.6 4 Este 15 Norte 0 -- -- 17
2019-09-30 10:00:00 23.2 4 Este 12 Este 0 -- -- 19
2019-09-30 09:00:00 16.7 9 Nordeste 14 Nordeste 0 -- -- 27
2019-09-30 08:00:00 14.7 10 Nordeste 14 Nordeste 0 -- -- 28
2019-09-30 07:00:00 14.2 12 Nordeste 14 Nordeste 0 -- -- 29
2019-09-30 06:00:00 13.7 10 Nordeste 13 Nordeste 0 -- -- 30
2019-09-30 05:00:00 14.2 8 Nordeste 11 Nordeste 0 -- -- 29
2019-09-30 04:00:00 15.2 9 Nordeste 11 Norte 0 -- -- 28
2019-09-30 03:00:00 15.6 5 Nordeste 10 Nordeste 0 -- -- 27
2019-09-30 02:00:00 15.5 5 Nordeste 9 Norte 0 -- -- 27
2019-09-30 01:00:00 16.1 5 Nordeste 8 Norte 0 -- -- 26
2019-09-30 00:00:00 16.6 6 Nordeste 8 Nordeste 0 -- -- 25
2019-09-29 23:00:00 16.8 5 Nordeste 8 Nordeste 0 -- -- 24
2019-09-29 22:00:00 16.8 4 Norte 9 Sur 0 -- -- 24
2019-09-29 21:00:00 18.9 6 Sudoeste 15 Sudoeste 0 -- -- 22
2019-09-29 20:00:00 20.2 9 Sudoeste 26 Sudoeste 0 -- -- 21
2019-09-29 19:00:00 22.3 10 Sudoeste 32 Oeste 0 -- -- 19
2019-09-29 18:00:00 22.9 17 Sudoeste 34 Sudoeste 0 -- -- 19
2019-09-29 17:00:00 23.5 14 Oeste 36 Oeste 0 -- -- 18
2019-09-29 16:00:00 23.4 16 Sudeste 36 Sudeste 0 -- -- 19
2019-09-29 15:00:00 23.7 19 Sudeste 45 Sudeste 0 -- -- 18
2019-09-29 14:00:00 23.7 19 Sur 41 Oeste 0 -- -- 19
2019-09-29 13:00:00 22.7 15 Sudoeste 34 Oeste 0 -- -- 22
2019-09-29 12:00:00 21 19 Oeste 38 Sudoeste 0 -- -- 24
2019-09-29 11:00:00 21.3 13 Sudoeste 28 Sudoeste 0 -- -- 23
2019-09-29 10:00:00 19.9 12 Sudoeste 24 Sudoeste 0 -- -- 24
2019-09-29 09:00:00 17.6 6 Sudoeste 19 Sur 0 -- -- 28
2019-09-29 08:00:00 16.3 10 Sudoeste 17 Sudoeste 0 -- -- 30
2019-09-29 07:00:00 15.9 10 Sudoeste 21 Sudoeste 0 -- -- 32
2019-09-29 06:00:00 16.5 9 Sudoeste 18 Sudoeste 0 -- -- 32
2019-09-29 05:00:00 17.3 11 Sudoeste 18 Sudoeste 0 -- -- 30
2019-09-29 04:00:00 17 8 Sudoeste 24 Sudoeste 0 -- -- 31
2019-09-29 03:00:00 17.1 11 Sudoeste 22 Sudoeste 0 -- -- 31
2019-09-29 02:00:00 17.3 10 Sudoeste 27 Sudoeste 0 -- -- 31
2019-09-29 01:00:00 17.2 14 Sudoeste 40 Sudoeste 0 -- -- 31
2019-09-29 00:00:00 17.7 19 Sudoeste 36 Sudoeste 0 -- -- 31
2019-09-28 23:00:00 17.4 21 Sudoeste 39 Sudoeste 0 -- -- 31
2019-09-28 22:00:00 17.7 15 Sudoeste 32 Sudoeste 0 -- -- 31
2019-09-28 21:00:00 17.9 13 Sudoeste 36 Oeste 0 -- -- 31
2019-09-28 20:00:00 18.2 15 Oeste 45 Oeste 0 -- -- 30
2019-09-28 19:00:00 19.9 18 Sudoeste 42 Sudoeste 0 -- -- 27
2019-09-28 18:00:00 21 17 Sudoeste 50 Sudoeste 0 -- -- 25
2019-09-28 17:00:00 21.6 21 Oeste 47 Sudoeste 0 -- -- 23
2019-09-28 16:00:00 22.5 19 Sudoeste 45 Sudoeste 0 -- -- 21
2019-09-28 15:00:00 22.4 18 Sudoeste 38 Sudoeste 0 -- -- 22
2019-09-28 14:00:00 22.4 21 Sudoeste 43 Sur 0 -- -- 24
2019-09-28 13:00:00 21.8 17 Sudoeste 40 Sudoeste 0 -- -- 22
2019-09-28 12:00:00 21.3 18 Sudoeste 34 Oeste 0 -- -- 23
2019-09-28 11:00:00 20.3 17 Sudoeste 33 Sudoeste 0 -- -- 27
2019-09-28 10:00:00 19.4 17 Sudoeste 29 Sur 0 -- -- 28
2019-09-28 09:00:00 17.3 8 Sudoeste 26 Sur 0 -- -- 32
2019-09-28 08:00:00 15.9 11 Sudoeste 26 Sudoeste 0 -- -- 33
2019-09-28 07:00:00 15.8 14 Sudoeste 30 Sudoeste 0 -- -- 33
2019-09-28 06:00:00 15.8 12 Sudoeste 38 Sudoeste 0 -- -- 34
2019-09-28 05:00:00 16 9 Sudoeste 23 Sur 0 -- -- 34
2019-09-28 04:00:00 16 9 Sudoeste 27 Sur 0 -- -- 33
2019-09-28 03:00:00 16.3 9 Sudoeste 55 Sudoeste 0 -- -- 31
2019-09-28 02:00:00 17.2 29 Sudoeste 55 Sudoeste 0 -- -- 30
2019-09-28 01:00:00 17.2 29 Sudoeste 53 Sudoeste 0 -- -- 30
2019-09-28 00:00:00 17.4 24 Sudoeste 53 Sudoeste 0 -- -- 29
2019-09-27 23:00:00 17.5 22 Sur 44 Sudoeste 0 -- -- 28
2019-09-27 22:00:00 17.7 16 Sur 41 Sudoeste 0 -- -- 26
2019-09-27 21:00:00 17.5 9 Sudoeste 29 Oeste 0 -- -- 24
2019-09-27 20:00:00 18 8 Sudoeste 36 Oeste 0 -- -- 24
2019-09-27 19:00:00 19.9 11 Sudoeste 45 Sudoeste 0 -- -- 24
2019-09-27 18:00:00 21.5 15 Sudoeste 46 Sur 0 -- -- 21
2019-09-27 17:00:00 21.7 21 Sudoeste 60 Sudoeste 0 -- -- 21
2019-09-27 16:00:00 22.1 19 Sudoeste 55 Sur 0 -- -- 19
2019-09-27 15:00:00 22.5 22 Sudoeste 50 Sur 0 -- -- 21
2019-09-27 14:00:00 22.2 18 Sudoeste 59 Sudoeste 0 -- -- 21
2019-09-27 13:00:00 22.1 20 Sudoeste 57 Sur 0 -- -- 23
2019-09-27 12:00:00 21.1 19 Sur 60 Sudoeste 0 -- -- 25
2019-09-27 11:00:00 20.6 17 Sudoeste 61 Sudoeste 0 -- -- 26
2019-09-27 10:00:00 19.3 24 Sudoeste 58 Sudoeste 0 -- -- 27
2019-09-27 09:00:00 18.2 12 Sudoeste 34 Oeste 0 -- -- 26
2019-09-27 08:00:00 17 12 Sudoeste 39 Sudoeste 0 -- -- 25
2019-09-27 07:00:00 17.1 13 Sudoeste 39 Sudoeste 0 -- -- 24
2019-09-27 06:00:00 17 13 Sudoeste 36 Oeste 0 -- -- 22
2019-09-27 05:00:00 17.1 12 Sudoeste 31 Oeste 0 -- -- 22
2019-09-27 04:00:00 16.6 7 Sudoeste 35 Oeste 0 -- -- 22
2019-09-27 03:00:00 17.1 11 Sudoeste 32 Oeste 0 -- -- 22
2019-09-27 02:00:00 17.4 13 Sudoeste 32 Oeste 0 -- -- 22
2019-09-27 01:00:00 17.6 13 Oeste 40 Noroeste 0 -- -- 22
2019-09-27 00:00:00 17.8 10 Sudoeste 35 Oeste 0 -- -- 23
2019-09-26 23:00:00 17.5 8 Sudoeste 28 Oeste 0 -- -- 22
2019-09-26 22:00:00 17.7 9 Sudoeste 32 Sur 0 -- -- 21
2019-09-26 21:00:00 18.3 10 Sudoeste 36 Sur 0 -- -- 22
2019-09-26 20:00:00 18.7 12 Sudoeste 48 Sur 0 -- -- 22
2019-09-26 19:00:00 20.6 15 Sudoeste 45 Oeste 0 -- -- 20
2019-09-26 18:00:00 21.4 14 Sudoeste 56 Sudoeste 0 -- -- 19
2019-09-26 17:00:00 21.9 23 Sudoeste 57 Oeste 0 -- -- 19
2019-09-26 16:00:00 21.8 24 Sudoeste 54 Oeste 0 -- -- 18
2019-09-26 15:00:00 22.3 20 Sudoeste 46 Sudoeste 0 -- -- 17
2019-09-26 14:00:00 22.1 23 Sudoeste 52 Oeste 0 -- -- 18
2019-09-26 13:00:00 21.6 19 Oeste 44 Sudoeste 0 -- -- 19
2019-09-26 12:00:00 21.3 18 Oeste 40 Oeste 0 -- -- 21
2019-09-26 11:00:00 20.7 16 Sudoeste 35 Sudoeste 0 -- -- 20
2019-09-26 10:00:00 19 11 Sudoeste 19 Sudoeste 0 -- -- 23
2019-09-26 09:00:00 16.7 5 Sudoeste 17 Sudoeste 0 -- -- 24
2019-09-26 08:00:00 13.1 3 Sudoeste 8 Sudoeste 0 -- -- 24
2019-09-26 07:00:00 13.6 2 Oeste 6 Noroeste 0 -- -- 17
2019-09-26 06:00:00 12.7 3 Noroeste 5 Oeste 0 -- -- 14
2019-09-26 05:00:00 12.4 0 Calma 8 Norte 0 -- -- 13
2019-09-26 04:00:00 12.7 8 Norte 12 Noroeste 0 -- -- 11
2019-09-26 03:00:00 11.8 6 Norte 9 Norte 0 -- -- 19
2019-09-26 02:00:00 13.1 6 Norte 8 Norte 0 -- -- 25
2019-09-26 01:00:00 13 4 Nordeste 6 Norte 0 -- -- 30
2019-09-26 00:00:00 11.4 3 Norte 6 Norte 0 -- -- 49
2019-09-25 23:00:00 12.1 2 Nordeste 4 Norte 0 -- -- 50
2019-09-25 22:00:00 14.7 2 Sudeste 12 Sudoeste 0 -- -- 47
2019-09-25 21:00:00 16.7 9 Sudoeste 13 Sudoeste 0 -- -- 42
2019-09-25 20:00:00 19.4 4 Sudoeste 17 Sudoeste 0 -- -- 22
2019-09-25 19:00:00 22.6 12 Sudoeste 20 Sudoeste 0 -- -- 13
2019-09-25 18:00:00 23.4 9 Sudoeste 25 Sudoeste 0 -- -- 16
2019-09-25 17:00:00 23.7 13 Sur 24 Sur 0 -- -- 20
2019-09-25 16:00:00 24.4 15 Sur 27 Sur 0 -- -- 21
2019-09-25 15:00:00 23.8 14 Sur 31 Este 0 -- -- 21
2019-09-25 14:00:00 21.9 18 Este 29 Este 0 -- -- 26
2019-09-25 13:00:00 22.5 16 Este 30 Sudeste 0 -- -- 24
2019-09-25 12:00:00 21.2 16 Este 28 Este 0 -- -- 23
2019-09-25 11:00:00 20.1 17 Nordeste 27 Este 0 -- -- 20
2019-09-25 10:00:00 18.2 16 Nordeste 22 Nordeste 0 -- -- 28
2019-09-25 09:00:00 14.8 15 Este 23 Este 0 -- -- 35
2019-09-25 08:00:00 11.5 15 Este 23 Este 0 -- -- 40
2019-09-25 07:00:00 10.8 15 Nordeste 18 Nordeste 0 -- -- 29
2019-09-25 06:00:00 9.3 13 Nordeste 17 Nordeste 0 -- -- 30
2019-09-25 05:00:00 8.7 10 Nordeste 20 Nordeste 0 -- -- 36
2019-09-25 04:00:00 11 17 Nordeste 23 Nordeste 0 -- -- 37
2019-09-25 03:00:00 11.2 14 Este 21 Nordeste 0 -- -- 39
2019-09-25 02:00:00 11.1 13 Nordeste 19 Nordeste 0 -- -- 46
2019-09-25 01:00:00 12 16 Nordeste 25 Nordeste 0 -- -- 49
2019-09-25 00:00:00 12.3 16 Nordeste 28 Nordeste 0 -- -- 50
2019-09-24 23:00:00 12.7 19 Nordeste 27 Este 0 -- -- 27
2019-09-24 22:00:00 12.1 5 Norte 20 Este 0 -- -- 36
2019-09-24 21:00:00 14.4 17 Este 22 Este 0 -- -- 31
2019-09-24 20:00:00 18.5 6 Oeste 15 Sudoeste 0 -- -- 26
2019-09-24 19:00:00 21.1 9 Oeste 21 Oeste 0 -- -- 25
2019-09-24 18:00:00 21.5 10 Sur 28 Sudoeste 0 -- -- 34
2019-09-24 17:00:00 23 14 Sudoeste 28 Sudoeste 0 -- -- 29
2019-09-24 16:00:00 23.1 13 Sur 27 Sudeste 0 -- -- 23
2019-09-24 15:00:00 23.1 15 Sudeste 28 Sudeste 0 -- -- 27
2019-09-24 14:00:00 21.9 18 Sudeste 27 Sudeste 0 -- -- 37
2019-09-24 13:00:00 23 13 Sur 22 Sur 0 -- -- 33
2019-09-24 12:00:00 21.9 10 Sur 20 Sudoeste 0 -- -- 22
2019-09-24 11:00:00 20.1 8 Sur 12 Sudoeste 0 -- -- 13
2019-09-24 10:00:00 17 4 Sudeste 8 Sudeste 0 -- -- 14
2019-09-24 09:00:00 12.3 5 Nordeste 9 Nordeste 0 -- -- 22
2019-09-24 08:00:00 7.2 4 Nordeste 8 Sudoeste 0 -- -- 27
2019-09-24 07:00:00 7.7 4 Nordeste 13 Norte 0 -- -- 22
2019-09-24 06:00:00 9.2 3 Nordeste 14 Nordeste 0 -- -- 26
2019-09-24 05:00:00 8.3 5 Nordeste 10 Norte 0 -- -- 37
2019-09-24 04:00:00 7.6 4 Nordeste 9 Este 0 -- -- 44
2019-09-24 03:00:00 7.8 5 Nordeste 9 Norte 0 -- -- 50
2019-09-24 02:00:00 8.2 7 Norte 10 Norte 0 -- -- 59
2019-09-24 01:00:00 9.3 5 Norte 11 Nordeste 0 -- -- 60
2019-09-24 00:00:00 10.3 5 Norte 9 Nordeste 0 -- -- 56
2019-09-23 23:00:00 10.9 5 Norte 6 Norte 0 -- -- 59
2019-09-23 22:00:00 12.6 2 Nordeste 4 Norte 0 -- -- 61
2019-09-23 21:00:00 14.6 2 Sudeste 12 Sudoeste 0 -- -- 53
2019-09-23 20:00:00 16.5 8 Sudoeste 21 Sudoeste 0 -- -- 47
2019-09-23 19:00:00 19.4 11 Sudoeste 24 Sudoeste 0 -- -- 40
2019-09-23 18:00:00 19.9 10 Oeste 25 Oeste 0 -- -- 37
2019-09-23 17:00:00 19.5 15 Oeste 27 Sudoeste 0 -- -- 35
2019-09-23 16:00:00 20.4 14 Oeste 29 Sur 0 -- -- 32
2019-09-23 15:00:00 20.5 14 Oeste 27 Oeste 0 -- -- 36
2019-09-23 14:00:00 20 14 Oeste 26 Sudoeste 0 -- -- 39
2019-09-23 13:00:00 19.7 13 Oeste 22 Sudoeste 0 -- -- 37
2019-09-23 12:00:00 18.6 9 Oeste 18 Oeste 0 -- -- 37
2019-09-23 11:00:00 18.2 8 Sudoeste 12 Sudoeste 0 -- -- 36
2019-09-23 10:00:00 16.5 5 Sudoeste 11 Sudoeste 0 -- -- 41
2019-09-23 09:00:00 11.5 3 Noroeste 10 Noroeste 0 -- -- 51
2019-09-23 08:00:00 6.9 3 Nordeste 12 Noroeste 0 -- -- 65
2019-09-23 07:00:00 7.6 7 Norte 10 Norte 0 -- -- 65
2019-09-23 06:00:00 7.7 7 Nordeste 10 Norte 0 -- -- 71
2019-09-23 05:00:00 7.4 6 Nordeste 12 Norte 0 -- -- 75
2019-09-23 04:00:00 8.1 9 Norte 11 Norte 0 -- -- 77
2019-09-23 03:00:00 9.3 8 Norte 12 Norte 0 -- -- 77
2019-09-23 02:00:00 9.4 5 Norte 15 Nordeste 0 -- -- 85
2019-09-23 01:00:00 11.3 8 Nordeste 18 Nordeste 0 -- -- 80
2019-09-23 00:00:00 11.5 12 Nordeste 19 Este 0 -- -- 84
2019-09-22 23:00:00 12.7 14 Nordeste 20 Este 0 -- -- 75
2019-09-22 22:00:00 13.7 9 Este 20 Este 0 -- -- 68
2019-09-22 21:00:00 13.9 18 Este 24 Nordeste 0 -- -- 76
2019-09-22 20:00:00 16.9 10 Este 23 Sudoeste 0 -- -- 60
2019-09-22 19:00:00 20.4 6 Sudoeste 26 Oeste 0 -- -- 48
2019-09-22 18:00:00 20.6 12 Sudoeste 23 Oeste 0 -- -- 53
2019-09-22 17:00:00 20.1 14 Sudoeste 28 Oeste 0 -- -- 57
2019-09-22 16:00:00 20.2 14 Oeste 32 Sur 0 -- -- 55
2019-09-22 15:00:00 21.6 14 Sudoeste 30 Sur 0 -- -- 47
2019-09-22 14:00:00 20.8 12 Oeste 26 Sur 0 -- -- 43
2019-09-22 13:00:00 20.9 13 Sudoeste 39 Sudoeste 0 -- -- 43
2019-09-22 12:00:00 21.8 9 Sudoeste 21 Sur 0 -- -- 28
2019-09-22 11:00:00 20.2 7 Sudoeste 15 Sudoeste 0 -- -- 24
2019-09-22 10:00:00 18.2 6 Sudeste 10 Este 0 -- -- 23
2019-09-22 09:00:00 14 4 Nordeste 11 Norte 0 -- -- 51
2019-09-22 08:00:00 9.8 3 Este 11 Este 0 -- -- 53
2019-09-22 07:00:00 9.5 8 Norte 14 Nordeste 0 -- -- 41
2019-09-22 06:00:00 10.8 8 Nordeste 19 Este 0 -- -- 33
2019-09-22 05:00:00 9.7 8 Norte 22 Este 0 -- -- 36
2019-09-22 04:00:00 11.5 2 Sudeste 19 Este 0 -- -- 32
2019-09-22 03:00:00 13.2 7 Este 21 Este 0 -- -- 28
2019-09-22 02:00:00 13.1 15 Este 23 Este 0 -- -- 24
2019-09-22 01:00:00 16.3 6 Sudoeste 19 Sudoeste 0 -- -- 16
2019-09-22 00:00:00 16.5 13 Sudoeste 23 Sudoeste 0 -- -- 27
2019-09-21 23:00:00 16.6 13 Sudoeste 23 Sudoeste 0 -- -- 22
2019-09-21 22:00:00 16.7 15 Sur 20 Sur 0 -- -- 33
2019-09-21 21:00:00 17 15 Sur 28 Sur 0 -- -- 36
2019-09-21 20:00:00 17.9 9 Sudoeste 34 Oeste 0 -- -- 16
2019-09-21 19:00:00 20.3 15 Oeste 41 Oeste 0 -- -- 8
2019-09-21 18:00:00 21 17 Oeste 42 Sudoeste 0 -- -- 10
2019-09-21 17:00:00 21.9 19 Oeste 46 Sur 0 -- -- 6
2019-09-21 16:00:00 21.9 18 Oeste 54 Sudoeste 0 -- -- 8
2019-09-21 15:00:00 22.2 18 Oeste 49 Sudoeste 0 -- -- 7
2019-09-21 14:00:00 21.5 12 Sudoeste 49 Oeste 0 -- -- 9
2019-09-21 13:00:00 21.5 16 Sudoeste 44 Sudoeste 0 -- -- 9
2019-09-21 12:00:00 21.3 13 Sudoeste 33 Oeste 0 -- -- 8
2019-09-21 11:00:00 20.5 15 Sudoeste 30 Oeste 0 -- -- 10
2019-09-21 10:00:00 19.5 14 Sur 29 Sur 0 -- -- 13
2019-09-21 09:00:00 17.5 13 Sur 25 Sudoeste 0 -- -- 12
2019-09-21 08:00:00 16.4 10 Sur 30 Sudoeste 0 -- -- 7
2019-09-21 07:00:00 15.8 13 Sur 29 Sudoeste 0 -- -- 6
2019-09-21 06:00:00 16.1 11 Sudoeste 24 Sur 0 -- -- 6
2019-09-21 05:00:00 16.2 11 Sur 27 Oeste 0 -- -- 7
2019-09-21 04:00:00 16 9 Sudoeste 31 Sudoeste 0 -- -- 7
2019-09-21 03:00:00 15.9 13 Sur 26 Sur 0 -- -- 13
2019-09-21 02:00:00 15.1 12 Sur 20 Sur 0 -- -- 15
2019-09-21 01:00:00 15.9 8 Sur 20 Sudoeste 0 -- -- 15
2019-09-21 00:00:00 15.6 10 Sur 28 Sudoeste 0 -- -- 19
2019-09-20 23:00:00 15.7 12 Sur 28 Sudoeste 0 -- -- 21
2019-09-20 22:00:00 16.5 13 Sur 27 Sur 0 -- -- 19
2019-09-20 21:00:00 17.2 6 Sudoeste 26 Sudoeste 0 -- -- 20
2019-09-20 20:00:00 18 10 Sudoeste 32 Oeste 0 -- -- 19
2019-09-20 19:00:00 20.6 12 Sudoeste 34 Oeste 0 -- -- 19
2019-09-20 18:00:00 21.8 12 Sudoeste 44 Sudoeste 0 -- -- 19
2019-09-20 17:00:00 21.8 19 Sudoeste 50 Sudoeste 0 -- -- 19
2019-09-20 16:00:00 21.9 19 Sudoeste 39 Sudoeste 0 -- -- 21
2019-09-20 15:00:00 22.5 16 Sudoeste 40 Oeste 0 -- -- 20
2019-09-20 14:00:00 22.4 17 Sudoeste 38 Oeste 0 -- -- 18
2019-09-20 13:00:00 22.7 13 Sudoeste 39 Sudoeste 0 -- -- 16
2019-09-20 12:00:00 21.5 13 Oeste 33 Oeste 0 -- -- 14
2019-09-20 11:00:00 21.1 10 Sudoeste 18 Oeste 0 -- -- 13
2019-09-20 10:00:00 19.4 6 Sudoeste 15 Sur 0 -- -- 13
2019-09-20 09:00:00 17 5 Sudoeste 9 Sur 0 -- -- 13
2019-09-20 08:00:00 13.8 4 Sur 9 Sudoeste 0 -- -- 14
2019-09-20 07:00:00 12.1 2 Sudoeste 7 Sudoeste 0 -- -- 15
2019-09-20 06:00:00 13.1 2 Sudoeste 5 Sudoeste 0 -- -- 12
2019-09-20 05:00:00 12.9 3 Sur 9 Sudeste 0 -- -- 15
2019-09-20 04:00:00 13.7 3 Sur 6 Sur 0 -- -- 15
2019-09-20 03:00:00 14 4 Sudoeste 7 Sur 0 -- -- 21
2019-09-20 02:00:00 13.4 4 Sur 9 Sudoeste 0 -- -- 19
2019-09-20 01:00:00 11.1 2 Noroeste 8 Noroeste 0 -- -- 29
2019-09-20 00:00:00 11.7 4 Norte 12 Norte 0 -- -- 36
2019-09-19 23:00:00 12.9 4 Norte 17 Sur 0 -- -- 33
2019-09-19 22:00:00 16.3 10 Sur 15 Sur 0 -- -- 24
2019-09-19 21:00:00 16.3 10 Sur 21 Sudoeste 0 -- -- 35
2019-09-19 20:00:00 18.3 13 Sudoeste 25 Sudoeste 0 -- -- 34
2019-09-19 19:00:00 20.8 13 Oeste 30 Sudoeste 0 -- -- 28
2019-09-19 18:00:00 21.9 11 Sudoeste 30 Oeste 0 -- -- 35
2019-09-19 17:00:00 22.6 13 Oeste 30 Oeste 0 -- -- 29
2019-09-19 16:00:00 23.3 12 Sudoeste 30 Oeste 0 -- -- 26
2019-09-19 15:00:00 23.3 15 Oeste 31 Sudoeste 0 -- -- 27
2019-09-19 14:00:00 23.8 13 Oeste 26 Oeste 0 -- -- 29
2019-09-19 13:00:00 22.8 14 Oeste 30 Oeste 0 -- -- 27
2019-09-19 12:00:00 22.8 13 Oeste 23 Sudoeste 0 -- -- 27
2019-09-19 11:00:00 21.5 8 Sudoeste 14 Sudoeste 0 -- -- 30
2019-09-19 10:00:00 20.9 5 Sur 7 Sudeste 0 -- -- 32
2019-09-19 09:00:00 16.4 0 Calma 9 Nordeste 0 -- -- 34
2019-09-19 08:00:00 11.3 6 Nordeste 9 Nordeste 0 -- -- 42
2019-09-19 07:00:00 10.4 5 Nordeste 9 Norte 0 -- -- 46
2019-09-19 06:00:00 11 6 Nordeste 8 Norte 0 -- -- 41
2019-09-19 05:00:00 11 4 Nordeste 9 Norte 0 -- -- 37
2019-09-19 04:00:00 11 5 Nordeste 9 Este 0 -- -- 38
2019-09-19 03:00:00 11.4 6 Norte 9 Norte 0 -- -- 36
2019-09-19 02:00:00 11.3 8 Norte 10 Norte 0 -- -- 30
2019-09-19 01:00:00 12.5 6 Norte 10 Norte 0 -- -- 27
2019-09-19 00:00:00 13.4 4 Norte 12 Norte 0 -- -- 22
2019-09-18 23:00:00 13.5 5 Norte 10 Norte 0 -- -- 22
2019-09-18 22:00:00 15.4 4 Nordeste 21 Este 0 -- -- 16
2019-09-18 21:00:00 16.4 13 Este 20 Este 0 -- -- 18
2019-09-18 20:00:00 20.3 13 Sur 41 Sudoeste 0 -- -- 19
2019-09-18 19:00:00 22.4 26 Sur 43 Sudoeste 0 -- -- 21
2019-09-18 18:00:00 23.2 16 Sudoeste 54 Sudoeste 0 -- -- 24
2019-09-18 17:00:00 23.3 17 Sudoeste 43 Sudoeste 0 -- -- 25
2019-09-18 16:00:00 23.7 15 Sudoeste 30 Oeste 0 -- -- 17
2019-09-18 15:00:00 23.6 10 Oeste 33 Sudoeste 0 -- -- 17
2019-09-18 14:00:00 24.1 16 Sudoeste 31 Sudoeste 0 -- -- 17
2019-09-18 13:00:00 22.6 14 Sudoeste 27 Oeste 0 -- -- 13
2019-09-18 12:00:00 23.5 10 Sudoeste 34 Sur 0 -- -- 11
2019-09-18 11:00:00 22.2 8 Sudoeste 24 Sur 0 -- -- 9
2019-09-18 10:00:00 20 12 Sur 18 Sudoeste 0 -- -- 11
2019-09-18 09:00:00 17.5 13 Sur 19 Sudoeste 0 -- -- 12
2019-09-18 08:00:00 15 13 Sur 19 Sudoeste 0 -- -- 13
2019-09-18 07:00:00 15.8 10 Sur 23 Sur 0 -- -- 11
2019-09-18 06:00:00 16 13 Sur 21 Sudoeste 0 -- -- 13
2019-09-18 05:00:00 15.8 9 Sur 19 Sudoeste 0 -- -- 13
2019-09-18 04:00:00 16.2 12 Sur 24 Sur 0 -- -- 12
2019-09-18 03:00:00 16.2 11 Sur 21 Sur 0 -- -- 15
2019-09-18 02:00:00 16.2 8 Sur 20 Sur 0 -- -- 13
2019-09-18 01:00:00 16.8 12 Sur 26 Sudoeste 0 -- -- 12
2019-09-18 00:00:00 17.4 13 Sudoeste 21 Sur 0 -- -- 14
2019-09-17 23:00:00 17.3 9 Sur 23 Sudoeste 0 -- -- 21
2019-09-17 22:00:00 17.8 11 Sur 27 Sudoeste 0 -- -- 22
2019-09-17 21:00:00 18.3 8 Sudoeste 36 Oeste 0 -- -- 26
2019-09-17 20:00:00 19.2 14 Oeste 39 Oeste 0 -- -- 25